Regional Weather Roundup
Issued by NWS Charleston, WV

Home | Current Version | Previous Version | Graphics & Text | Print | Product List | Glossary On
Versions: 1 2 3 4 5 6 7 8 9 10 11 12 13 14 15 16 17 18 19 20 21 22 23 24 25 26 27 28 29 30 31 32 33 34 35 36 37 38 39 40 41 42 43 44 45 46 47 48 49 50
987
ASUS41 KRLX 130210
RWRRLX
West Virginia Regional Weather Roundup
National Weather Service Charleston WV
900 PM EST FRI FEB 12 2016

Note: "fair" indicates few or no clouds below 12,000 feet with no
significant weather and/or obstructions to visibility.

WVZ003-130300-
Northern Panhandle of West Virginia

CITY           SKY/WX    TMP DP  RH WIND       PRES   REMARKS
WHEELING       CLOUDY    20  14  77 W13G20    29.97S WCI   7
$$

WVZ009-130300-
Northwest West Virginia

CITY           SKY/WX    TMP DP  RH WIND       PRES   REMARKS
PARKERSBURG    CLOUDY    24  18  77 W12       30.09R
$$

WVZ006-130300-
Western West Virginia

CITY           SKY/WX    TMP DP  RH WIND       PRES   REMARKS
HUNTINGTON     FLURRIES  26  22  84 NW8G18    30.14R
$$

WVZ015-130300-
West Central West Virginia

CITY           SKY/WX    TMP DP  RH WIND       PRES   REMARKS
CHARLESTON     FLURRIES  29  15  56 NW14G20   30.09R
$$

WVZ022-031-130300-
North Central West Virginia

CITY           SKY/WX    TMP DP  RH WIND       PRES   REMARKS
CLARKSBURG     CLOUDY    21  17  84 W10       30.01S WCI  10
MORGANTOWN     FLURRIES  20  13  74 VRB7      30.00S
$$

WVZ025-035-042-045-130300-
Southern West Virginia

CITY           SKY/WX    TMP DP  RH WIND       PRES   REMARKS
BECKLEY        LGT SNOW  23  18  81 W13G30    29.97R
LOGAN          CLOUDY    28  14  54 W13G21    30.06R
BLUEFIELD      LGT SNOW  23  17  78 W20G37    29.96S WCI   8
LEWISBURG      FLURRIES  27  19  71 W9        29.95S
$$

WVZ047-130300-
Northern Mountains of West Virginia

CITY           SKY/WX    TMP DP  RH WIND       PRES   REMARKS
ELKINS         LGT SNOW  20  14  77 W9        29.96S WCI   9
$$

WVZ052-130300-
Eastern Panhandle of West Virginia

CITY           SKY/WX    TMP DP  RH WIND       PRES   REMARKS
MARTINSBURG    CLOUDY    22  20  92 CALM      29.99S
PETERSBURG     CLOUDY    27  15  60 CALM      29.99S
$$




USA.gov is the U.S. government's official web portal to all federal, state and local government web resources and services.